Regional Weather Roundup
Issued by NWS Jackson, KY

Home | Current Version | Previous Version | Graphics & Text | Print | Product List | Glossary On
Versions: 1 2 3 4 5 6 7 8 9 10 11 12 13 14 15 16 17 18 19 20 21 22 23 24 25 26 27
000
ASUS43 KJKL 171710
RWRJKL

EAST KENTUCKY HOURLY WEATHER ROUNDUP
NATIONAL WEATHER SERVICE JACKSON KY
1200 PM EST TUE JAN 17 2017

NOTE: "FAIR" INDICATES FEW OR NO CLOUDS BELOW 12,000 FEET WITH
NO SIGNIFICANT WEATHER AND/OR OBSTRUCTIONS TO VISIBILITY.

* THESE REPORTS ARE NOT UNDER NWS QUALITY CONTROL AND MAY NOT
  REPORT WEATHER SUCH AS PRECIPITATION AND FOG.

KYZ079-080-083-085-087-088-110-112-115-119-120-171800
...EASTERN KENTUCKY...

CITY           SKY/WX    TMP DP  RH WIND       PRES   REMARKS
JACKSON        CLOUDY    61  56  83 MISG      30.01F
LONDON         LGT RAIN  60  55  83 SW14G25   30.03F
SOMERSET*      DRIZZLE   59  59 100 S7        30.03F
MONTICELLO*    CLOUDY    61  59  93 S9G21     30.04F
WILLIAMSBURG*  CLOUDY    59  59 100 S5        30.04F
MIDDLESBORO*   LGT RAIN  59  56  90 S5G10     30.09F
HARLAN APT*    CLOUDY    57  54  88 SW5       30.08F
PIKE CO APT*   CLOUDY    61  57  85 S10G18    30.02F
BIG SANDY APT* CLOUDY    64  56  77 W14G23    30.00F
MOREHEAD APT*  CLOUDY    63  57  82 SW20G29   29.98S
ASHLAND*       CLOUDY    63  59  88 SW13G21   29.92F
$$

KYZ035-036-041-042-044-050-067-078-099-171800
...CENTRAL KENTUCKY...

CITY           SKY/WX    TMP DP  RH WIND       PRES   REMARKS
MT STERLING*   CLOUDY    61  59  94 SW14G23   29.97F
FLEMING/MASON* CLOUDY    61  60  97 SW14      29.94F
DANVILLE*      CLOUDY    63  59  88 SW15G22   29.98F
LEXINGTON      CLOUDY    63  58  83 SW16G24   29.95F
FRANKFORT      CLOUDY    64  57  78 SW16      29.93F
LOUISVILLE     PTSUNNY   63  52  67 W18G25    29.95R
LEBANON*       CLOUDY    64  59  82 SW14G23   29.98S
GLASGOW*       CLOUDY    63  60  90 SW15      30.02R
BOWLING GREEN  PTSUNNY   63  55  75 SW17G26   30.03R
$$

KYZ091>093-OHZ055-061-077-WVZ005-015-034-035-042-171800
...SOUTHERN OHIO/WEST VIRGINIA...

CITY           SKY/WX    TMP DP  RH WIND       PRES   REMARKS
COVINGTON      PTSUNNY   58  53  84 W18       29.91S
COLUMBUS       CLOUDY    62  54  74 SW15G23   29.85F
DAYTON         CLOUDY    54  50  86 W13       29.89F
WILMINGTON     MOSUNNY   62  55  77 SW20G31   29.87F
HUNTINGTON     CLOUDY    62  57  83 SW14G23   29.94F
CHARLESTON     CLOUDY    64  54  69 SW21G29   29.95F
BECKLEY        CLOUDY    56  50  80 SW23G32   30.06F
BLUEFIELD      CLOUDY    56  48  74 SW17G24   30.10F
LOGAN CO APT*  CLOUDY    57  55  94 VRB3      30.01F
$$

VAZ002-007-008-TNZ017-027-036-066-071-171800
...SOUTHWEST VIRGINIA/EAST TENNESSEE...

CITY           SKY/WX    TMP DP  RH WIND       PRES   REMARKS
WISE*          LGT RAIN  55  55 100 SW20G26   30.10F
JONESVILLE*    LGT RAIN  55  55 100 SW5       30.12F
ABINGDON*      CLOUDY    56  54  94 CALM      30.11F
BRISTOL        LGT RAIN  57  52  83 SW5       30.12F
MORRISTOWN*    PTSUNNY   59  57  94 VRB7      30.10F
SEVIERVILLE*   CLOUDY    63  55  77 NW5       30.10F
KNOXVILLE      LGT RAIN  63  55  75 SW15      30.10F
LAFOLLETTE*    CLOUDY    59  57  94 CALM      30.10F FOG
OAK RIDGE      RAIN      58  56  93 CALM      30.12F FOG
CROSSVILLE     LGT RAIN  58  57  97 VRB6      30.10F FOG
NASHVILLE      CLOUDY    63  58  83 SW8       30.06F
$$

...KEY TO REMARKS...
VSB - VISIBILITY IN MILES
WCI - WIND CHILL INDEX
HX  - HEAT INDEX

$$




USA.gov is the U.S. government's official web portal to all federal, state and local government web resources and services.